Wind_Speed
8 8 8 8 9 9 10 10 10 11 11 11 11 11 11 11 11 11 11 12 12 12 12 12 13 12 13 14 15 16 16 15 16 14 8 4 2 3 4 6 5 5 9 11 12 13 14 14 14 13 12 11 10 11 11 11 9 5 2 2 4 4 3 4 4 3 2 4 6 11 11 8 12 15 13 8 0 2 5 3 3 7 5 4 5 9 24 26
8 8 8 9 9 9 9 9 10 10 11 11 11 11 11 11 11 11 12 12 12 12 12 12 12 12 14 14 15 16 16 16 15 6 3 4 2 2 2 6 5 4 7 9 11 12 13 15 15 14 13 10 9 11 9 9 9 3 1 3 5 2 1 2 2 1 3 6 10 10 9 10 11 11 11 9 4 2 3 3 2 5 3 4 5 13 26 26
8 9 9 9 9 9 9 9 9 10 10 11 11 11 11 11 11 11 11 11 12 13 13 13 13 13 14 14 15 15 16 15 7 5 6 4 3 2 2 6 6 4 6 7 8 9 8 10 14 14 14 9 8 11 8 8 8 2 2 5 4 2 1 2 2 3 6 9 9 10 12 12 10 10 10 8 7 6 5 4 4 5 5 8 10 18 28 25
8 9 9 10 10 10 9 9 9 9 10 10 11 11 11 11 11 11 11 11 12 13 13 13 13 13 14 15 15 14 16 11 4 6 2 4 5 3 3 4 7 7 9 9 9 10 8 8 12 14 13 7 6 9 7 8 8 3 4 4 3 3 1 1 4 8 11 11 8 10 13 13 13 13 9 6 8 5 4 6 7 9 9 12 14 22 27 25
8 9 9 10 10 10 10 10 9 9 9 10 10 11 11 12 12 12 12 12 12 13 13 13 13 14 15 15 15 14 13 4 5 3 2 3 5 4 3 3 8 9 11 11 11 12 10 10 13 14 10 4 6 7 5 9 7 3 7 5 3 1 3 2 8 11 13 13 9 9 10 13 16 13 8 6 6 5 6 7 8 10 11 14 17 23 23 23
8 9 9 10 10 10 10 10 10 10 9 9 10 10 11 12 12 12 12 12 12 13 14 13 13 14 15 15 15 13 9 1 1 7 6 4 4 3 2 6 10 10 11 11 12 12 11 13 14 12 7 3 6 5 4 11 8 4 8 4 2 4 5 6 11 14 14 12 9 8 10 14 13 11 10 7 10 12 12 10 9 9 11 13 18 22 22 22
9 9 9 10 10 10 10 11 11 10 10 10 9 10 10 11 12 12 12 12 12 13 14 14 14 14 14 15 14 12 10 7 7 8 6 5 1 3 5 8 9 9 11 10 11 13 13 15 15 12 7 3 4 4 6 12 9 8 6 1 3 5 7 10 13 15 15 13 13 11 13 12 7 9 10 11 16 17 13 10 7 5 10 14 18 21 21 21
9 10 10 10 11 11 11 11 11 11 11 11 10 10 10 11 11 12 12 12 12 12 13 14 13 14 14 14 13 12 12 9 5 5 4 3 3 4 6 7 8 8 9 8 8 10 13 16 16 13 6 2 5 7 8 9 7 10 7 1 4 7 9 12 13 16 17 17 15 10 11 10 8 9 10 15 18 13 9 4 3 8 13 15 17 19 19 20
10 11 11 11 12 11 12 12 12 12 12 12 11 11 10 11 11 12 12 12 12 13 13 14 13 14 14 13 12 11 8 5 4 4 3 2 4 5 7 5 5 7 7 6 6 8 12 15 17 13 5 4 8 9 9 7 5 8 10 6 8 9 10 12 12 15 16 14 9 5 10 9 7 7 8 12 12 8 4 4 9 13 17 17 17 18 20 22
11 11 12 12 12 12 12 12 12 12 12 12 12 11 11 11 12 12 12 12 13 13 13 13 13 13 14 12 9 5 4 4 4 3 2 2 6 7 7 5 3 5 5 5 6 7 10 12 14 11 4 6 8 7 9 7 4 6 8 9 11 11 11 10 10 14 15 11 8 8 9 6 2 3 5 7 7 4 3 10 11 14 18 18 19 21 23 23
11 12 12 13 13 13 13 13 13 13 13 13 12 12 12 12 12 12 12 12 13 13 13 14 13 13 13 12 6 4 6 6 3 1 2 4 7 8 7 4 3 4 4 3 3 5 8 8 12 9 4 7 8 5 7 6 6 6 5 6 7 7 9 8 9 13 10 8 9 9 6 2 0 3 6 8 6 1 8 12 12 15 17 19 21 22 23 21
13 13 13 13 13 14 14 13 13 13 13 13 13 13 13 13 13 13 13 12 13 13 13 13 13 13 13 14 12 8 7 7 5 4 2 4 7 9 8 5 4 3 2 2 1 1 5 8 12 8 3 7 7 4 4 3 4 6 4 4 4 4 5 3 6 7 3 6 7 6 5 3 3 6 9 8 4 5 10 13 15 16 17 20 22 22 23 22
14 14 14 14 14 15 14 14 14 14 13 12 13 13 13 14 13 13 13 12 13 13 13 13 13 14 13 12 12 9 8 10 10 9 8 7 7 8 8 6 5 4 3 3 2 2 4 10 13 8 3 6 3 1 1 2 3 4 1 2 3 4 3 0 1 3 2 5 4 5 5 3 4 9 11 6 4 8 10 13 16 17 18 21 22 22 23 23
14 15 15 15 15 15 15 15 15 14 13 13 13 13 14 14 14 14 14 13 14 13 14 13 14 14 12 10 12 13 13 13 13 11 11 11 10 9 8 7 6 5 4 3 4 4 6 12 12 7 4 4 0 1 1 2 1 2 1 1 2 2 2 2 1 2 1 3 1 6 5 4 3 7 9 5 7 9 10 13 16 18 18 22 23 21 22 23
14 15 16 16 16 16 16 16 15 15 14 13 13 13 14 14 14 14 14 14 13 13 13 13 14 12 12 13 12 8 6 6 7 6 10 14 13 11 9 9 7 5 3 4 5 4 7 14 11 6 4 2 0 1 1 1 2 1 2 2 0 1 2 4 2 1 2 4 2 4 4 4 4 5 7 3 8 8 9 12 14 17 18 23 24 22 22 22
15 15 16 17 17 16 16 16 15 15 14 12 12 13 14 14 14 14 14 13 12 12 11 11 11 9 9 8 3 1 1 3 4 4 4 11 15 14 10 9 8 5 4 5 7 4 8 14 9 4 4 2 1 0 1 1 0 2 2 2 0 1 1 3 1 2 3 3 4 2 2 3 3 2 5 3 9 9 10 12 14 16 18 22 25 24 24 24
15 16 17 16 16 15 15 14 14 14 13 12 11 12 13 13 13 12 11 11 10 10 8 8 7 7 7 5 2 2 5 7 6 5 2 3 12 16 13 10 9 8 7 8 8 7 9 11 7 4 2 1 1 1 2 4 3 1 1 2 1 2 1 2 1 2 5 3 3 3 2 6 7 4 4 6 9 10 11 13 15 17 18 21 24 26 26 26
15 17 17 16 15 14 14 13 13 12 11 11 11 11 11 11 10 10 9 8 6 5 6 7 3 4 6 7 6 6 9 7 3 3 2 1 9 15 15 11 9 9 10 8 8 8 8 6 4 3 2 2 3 3 4 3 3 3 2 2 1 2 2 2 2 2 6 5 4 3 3 7 10 7 5 8 9 11 12 12 15 17 18 20 23 26 27 28
16 16 15 15 14 13 12 12 11 11 10 10 10 9 8 7 8 7 6 6 5 2 4 5 6 2 2 2 5 8 9 5 1 3 4 3 9 14 14 10 9 11 9 6 5 7 7 4 3 4 4 4 5 6 6 2 3 4 2 2 2 3 3 2 2 4 4 5 7 7 6 6 9 9 5 6 9 12 11 10 14 16 19 20 21 24 26 29
16 15 14 14 13 12 12 11 11 11 10 9 8 6 4 4 4 3 6 11 12 11 12 12 12 14 13 7 5 7 6 5 5 5 3 4 9 14 13 10 9 9 6 3 4 5 6 4 4 5 5 5 6 6 5 3 3 3 1 2 3 5 4 1 3 6 2 4 7 6 6 6 9 11 6 3 5 10 11 11 15 17 20 21 20 24 25 26
15 14 13 13 13 12 11 11 11 10 9 8 6 2 0 3 1 2 8 14 15 14 17 19 19 23 23 16 10 9 7 7 8 6 5 5 9 12 13 10 7 5 3 3 4 3 4 6 5 5 5 5 5 5 5 4 2 2 3 4 5 5 3 1 5 6 2 4 6 3 4 7 10 11 6 1 4 10 13 15 18 20 22 22 22 24 24 24
14 13 13 13 12 11 11 11 10 8 8 5 1 3 3 1 1 5 8 10 15 16 16 18 21 27 29 24 21 18 11 8 11 12 10 7 8 10 11 8 5 3 2 3 4 3 4 6 6 5 5 5 4 4 5 4 3 3 2 3 5 3 2 3 4 3 1 4 4 2 4 9 11 10 5 4 9 11 11 13 18 22 24 24 25 26 24 23
13 13 13 13 11 11 11 10 9 7 5 2 2 5 4 1 3 7 7 7 13 15 12 14 19 25 26 23 22 19 13 10 11 13 14 14 11 11 12 8 5 4 3 5 6 5 4 5 5 7 6 6 4 3 5 3 2 3 3 4 5 1 1 4 1 1 2 4 5 5 5 9 9 7 4 5 7 8 9 9 13 20 25 27 29 29 27 28
13 13 13 12 11 10 10 10 8 5 1 0 4 6 3 3 4 7 7 5 7 8 8 8 11 15 15 13 12 13 16 14 13 13 16 19 16 12 12 9 6 5 5 8 8 6 3 1 4 7 6 6 5 4 5 4 3 3 5 6 5 2 5 7 2 2 4 3 3 5 6 6 4 3 3 2 2 6 7 9 13 19 26 27 25 26 28 30
13 13 13 12 11 10 10 10 6 2 1 2 5 6 3 4 4 6 4 2 3 4 4 3 5 6 4 3 6 10 12 13 19 19 15 20 20 12 8 9 7 6 8 7 6 6 4 3 7 8 4 5 5 4 6 6 4 2 5 9 9 9 9 6 0 3 4 2 2 2 4 3 0 3 4 2 3 5 4 8 15 19 24 25 22 24 28 28
13 14 13 12 12 10 9 5 2 1 1 4 6 5 3 3 4 5 1 1 2 2 1 1 2 1 2 3 8 10 7 6 14 19 15 18 22 15 8 6 4 5 7 6 3 3 3 5 8 6 5 6 5 4 5 6 4 3 4 9 11 10 7 4 3 2 3 1 1 1 4 4 2 4 5 4 6 7 5 7 12 16 21 24 24 25 26 26
14 13 13 12 12 11 7 3 3 2 2 5 6 4 3 3 3 3 1 1 1 2 1 1 1 3 4 2 11 11 3 1 3 11 18 19 20 18 9 6 4 2 5 4 3 2 2 5 5 4 6 5 5 5 5 8 5 2 1 5 7 7 7 6 6 5 3 3 1 1 2 5 5 3 2 4 9 8 4 4 6 11 16 21 22 21 23 24
14 13 12 11 11 11 8 5 4 3 6 6 5 4 3 3 1 0 1 1 1 1 2 2 1 4 5 2 14 11 3 4 2 6 19 21 18 12 7 9 8 6 7 6 5 2 3 6 8 7 6 4 5 5 6 10 6 3 3 4 5 5 5 6 5 4 1 2 4 3 3 4 5 2 0 3 7 7 2 3 2 5 9 15 18 18 17 19
14 12 12 11 11 10 8 6 3 5 8 7 5 5 3 2 1 1 1 0 1 2 3 1 2 4 4 4 12 13 6 4 3 3 13 19 16 7 4 9 8 7 6 5 5 1 1 5 8 8 6 6 7 4 9 13 6 1 5 4 3 3 2 3 3 3 3 3 5 3 5 4 4 3 2 1 3 6 7 7 5 4 5 9 13 13 11 13
13 12 11 11 10 9 7 5 3 5 8 8 6 5 3 2 1 1 1 1 1 2 3 1 1 3 3 2 4 8 6 3 2 5 9 12 13 5 3 8 7 5 3 2 3 1 2 1 4 6 6 6 5 4 7 11 5 4 6 4 3 3 2 1 1 1 3 4 4 4 6 5 4 2 1 1 2 5 8 8 8 7 2 4 6 7 5 7
12 11 11 11 9 7 6 3 4 6 8 7 5 5 4 2 1 2 1 1 1 2 4 3 1 3 3 2 2 2 4 3 2 7 7 6 8 5 5 8 5 3 3 2 3 1 1 0 1 5 7 4 3 3 3 3 3 2 2 2 2 1 2 1 1 1 4 5 0 2 4 5 5 2 2 4 6 7 9 9 9 7 1 3 2 2 4 8
11 10 10 10 9 6 4 2 5 6 7 6 5 7 5 1 1 2 1 2 1 2 3 2 3 4 5 4 2 2 2 3 4 7 6 4 7 6 4 5 4 3 3 4 3 0 2 4 2 3 5 6 4 3 2 1 3 3 2 2 2 2 2 2 2 2 4 4 1 1 2 3 5 1 5 6 8 8 8 6 5 3 5 8 11 10 11 14
9 8 8 9 6 2 2 2 4 7 7 5 6 6 4 1 1 2 1 2 1 2 2 3 5 7 6 3 1 2 1 2 4 6 5 3 6 5 1 1 4 4 1 2 2 1 3 3 2 2 3 8 8 5 4 3 5 6 5 5 4 3 2 2 2 1 4 2 2 2 3 2 4 2 6 7 8 8 9 8 7 9 11 12 14 15 16 18
7 7 6 4 1 2 2 3 2 6 7 6 5 4 3 1 2 0 1 1 1 2 3 3 6 7 3 0 3 2 0 1 2 6 6 4 5 5 2 1 3 2 2 2 2 3 4 2 5 6 2 7 12 10 5 3 5 6 4 3 4 3 3 3 3 3 4 2 2 3 3 2 2 2 4 5 8 9 10 12 13 13 13 12 12 15 17 20
5 4 1 2 1 0 3 4 3 6 9 7 4 2 2 2 1 1 1 2 2 3 5 4 3 4 1 0 2 3 1 1 1 4 5 5 5 6 5 5 5 3 3 3 1 2 3 4 4 3 0 6 11 7 4 5 3 2 2 2 2 3 3 0 1 1 2 2 1 2 2 1 1 2 3 5 9 10 11 13 12 12 12 12 11 12 14 16
2 1 4 3 2 2 1 4 6 8 10 7 3 1 2 1 1 2 1 1 1 3 6 4 1 1 2 1 2 3 2 1 2 1 3 2 3 4 3 3 5 5 4 4 2 1 2 2 1 0 2 6 5 4 6 5 3 3 3 4 1 0 2 2 1 2 1 3 1 1 2 1 2 3 4 6 8 9 10 11 11 8 9 11 9 9 10 10
0 4 6 4 4 5 4 6 9 11 10 5 2 1 2 1 2 2 0 1 2 2 3 2 1 1 2 2 2 4 4 1 1 1 2 2 1 4 3 2 4 7 7 4 2 2 2 2 1 2 4 3 2 2 3 1 2 4 3 4 3 1 1 1 1 1 0 4 1 0 1 1 2 2 3 6 7 8 9 9 10 9 9 10 10 9 9 9
4 8 7 6 7 8 9 8 9 10 7 2 0 1 1 1 2 2 1 1 1 1 1 1 1 1 2 2 2 4 5 1 1 1 2 1 1 3 3 3 6 8 8 5 2 1 2 3 2 2 2 1 1 2 3 1 1 1 1 3 3 2 2 2 2 2 2 3 1 1 1 2 3 2 4 5 6 7 8 8 9 10 10 10 11 10 10 9
9 9 6 6 7 9 9 8 7 6 3 1 1 1 0 1 3 3 2 1 1 1 0 2 1 1 1 2 2 3 3 2 1 1 2 2 1 2 1 1 4 4 4 7 5 1 1 3 2 1 1 1 1 1 2 3 2 1 1 2 0 1 2 2 1 1 2 3 1 1 1 2 1 2 3 3 4 5 7 9 8 10 11 11 12 12 10 10
10 7 4 5 6 7 6 5 4 3 2 1 1 0 1 2 3 3 4 3 1 2 1 1 1 1 2 2 3 2 2 2 1 1 1 3 2 2 1 1 1 1 1 6 5 1 2 2 2 0 2 2 1 0 1 3 3 2 4 4 2 1 0 1 1 1 1 2 2 2 2 1 3 2 2 2 2 2 4 7 7 9 11 11 13 14 11 11
8 4 3 4 4 5 3 4 3 2 1 0 1 1 1 2 2 4 6 5 4 4 3 2 2 2 2 2 2 1 2 2 1 1 1 2 2 1 1 0 1 2 2 4 4 2 2 2 2 1 2 2 0 1 0 1 1 1 3 4 4 3 3 4 3 1 1 1 1 2 3 1 3 2 2 2 1 1 3 5 4 6 10 10 11 13 12 11
7 2 2 4 5 4 1 3 1 1 0 1 1 2 2 3 2 3 4 4 4 4 2 2 3 3 3 3 3 2 2 2 1 1 1 1 2 1 1 1 1 3 3 2 2 2 1 2 2 1 2 2 2 0 1 1 1 2 0 1 1 2 2 5 5 3 2 1 1 1 1 1 2 2 4 4 5 6 5 6 5 5 8 10 9 10 11 11
7 5 4 5 6 5 1 1 0 1 0 0 2 3 3 2 1 2 2 1 2 2 1 2 3 4 3 3 2 2 2 2 2 1 1 0 1 2 5 4 2 3 2 1 1 2 2 1 2 1 1 2 2 1 2 1 2 2 2 3 1 1 1 1 2 2 4 3 2 2 2 1 3 4 5 7 9 10 9 8 8 9 10 12 12 12 12 11
10 8 6 6 5 4 1 0 1 0 1 1 3 2 2 2 3 2 2 1 1 0 1 2 2 2 2 2 2 2 2 2 2 1 0 1 1 3 7 3 3 2 1 1 1 2 2 1 1 3 2 1 2 2 2 2 1 1 2 2 2 1 1 1 0 1 3 2 1 3 3 2 3 4 6 9 11 11 11 11 11 11 12 13 15 14 13 12
10 6 5 5 5 4 1 1 1 0 0 1 2 2 3 2 3 4 3 3 2 2 2 2 2 2 2 1 2 3 2 3 2 1 1 1 2 3 10 8 1 2 3 2 3 3 1 0 1 2 4 4 4 3 2 1 0 0 1 4 6 4 0 1 2 2 4 2 2 3 1 3 4 5 7 9 10 9 10 12 12 12 12 12 13 13 13 13
6 2 2 2 3 3 1 1 2 1 0 0 1 1 1 2 3 4 4 3 3 3 3 2 3 2 1 2 2 2 1 1 2 1 1 2 1 3 13 15 4 5 6 6 8 6 2 2 2 1 1 2 1 1 0 1 0 0 3 6 7 6 4 1 2 3 3 5 3 1 2 7 7 6 7 8 9 8 8 10 11 12 12 12 12 13 14 13
3 2 1 2 2 1 1 2 2 1 1 1 1 2 2 3 3 2 2 2 1 1 1 1 2 3 2 3 2 1 2 2 1 2 2 2 1 3 12 14 7 4 6 7 9 6 2 2 2 4 5 3 2 1 1 2 3 3 5 7 8 8 5 1 1 0 2 4 3 2 7 8 6 5 6 7 8 8 9 10 10 11 11 12 13 15 16 16
2 2 3 3 2 0 1 1 1 2 2 1 0 1 2 3 3 2 1 2 1 2 1 1 4 5 3 2 1 1 2 2 2 2 2 3 1 3 6 8 9 9 2 3 6 4 3 1 0 2 5 5 4 3 5 7 7 7 7 8 9 9 7 4 2 3 2 2 3 8 10 7 5 6 6 7 8 9 11 11 11 12 12 13 14 16 17 18
4 4 4 4 3 1 1 1 2 3 2 1 0 1 1 2 3 1 1 2 2 2 2 1 4 7 5 1 2 0 2 2 2 2 2 4 3 2 1 2 6 11 7 2 3 2 3 2 1 2 4 6 6 4 5 7 8 8 10 10 9 9 9 9 7 5 4 3 7 12 12 8 6 5 7 8 10 13 14 14 15 15 14 15 16 17 17 19
5 5 4 6 5 3 3 2 2 3 1 1 1 1 1 2 3 2 1 1 1 2 2 3 4 7 5 2 1 2 3 2 2 2 0 1 2 2 1 1 2 8 7 2 1 1 1 2 1 2 3 3 5 4 4 6 8 10 11 11 10 9 9 8 7 7 6 7 11 12 11 7 5 7 10 11 13 15 15 16 17 16 15 16 18 18 18 18
6 7 8 7 3 4 4 2 1 1 1 1 1 1 1 1 2 3 2 3 2 1 1 2 2 3 3 4 2 3 2 4 5 4 3 2 0 2 0 1 3 5 6 2 1 1 1 3 2 1 3 1 3 4 3 2 6 8 10 12 10 7 6 5 5 5 3 4 10 9 6 4 4 7 11 13 15 16 16 16 17 16 16 17 19 20 19 19
8 9 8 6 2 3 2 1 1 1 1 0 1 1 1 2 3 2 2 3 3 1 1 2 2 1 3 5 2 2 8 12 11 9 6 6 3 1 2 5 3 4 5 2 2 1 1 4 4 2 3 3 2 4 3 0 2 3 5 8 8 5 2 3 4 6 6 1 5 5 4 5 6 8 10 11 13 15 17 17 16 16 17 19 20 22 22 22
Wind_Direction
333 334 335 338 338 338 338 337 336 335 333 332 333 335 337 340 342 341 343 343 340 337 334 334 334 332 331 329 328 329 330 329 325 323 331 359 343 296 262 238 232 202 197 196 185 183 181 179 183 180 173 160 160 161 160 169 167 164 170 204 225 232 191 182 193 180 339 345 341 334 352 353 329 342 352 344 358 124 175 215 281 216 257 264 216 185 169 171
329 331 331 331 331 332 333 332 332 331 328 328 328 329 331 334 335 336 338 339 337 334 331 331 332 333 332 332 332 332 334 332 330 339 88 79 29 348 268 229 229 193 188 196 191 190 189 184 179 174 168 153 156 163 162 168 169 166 127 221 231 197 165 195 207 260 324 323 327 327 337 337 324 326 338 338 321 307 226 233 263 230 235 183 185 174 172 173
327 329 329 327 326 325 324 326 328 326 325 324 323 323 326 328 329 330 330 332 332 330 329 330 330 330 330 331 333 333 337 338 352 98 109 56 30 23 310 231 222 183 169 187 189 191 196 192 182 173 163 152 159 169 167 169 175 177 186 228 228 142 190 221 253 289 307 314 318 323 326 319 321 326 324 326 312 295 273 264 220 213 180 160 162 169 174 172
327 327 327 325 323 322 321 321 322 323 322 322 320 319 320 321 323 322 323 325 325 325 326 329 330 330 328 330 334 336 340 344 87 111 86 26 17 355 327 232 205 172 159 171 177 179 180 179 180 172 162 145 152 172 174 176 178 167 209 229 119 125 210 200 291 308 311 311 309 316 319 312 321 327 312 314 314 302 288 281 248 224 188 166 164 169 173 170
325 325 324 322 321 319 319 320 319 321 320 319 318 316 317 317 316 317 318 320 321 321 322 325 330 330 327 331 332 336 342 355 121 43 335 355 359 346 328 191 181 169 162 173 176 174 173 169 171 166 160 136 146 166 182 187 179 181 235 251 117 206 283 301 305 309 307 306 307 309 313 312 317 316 299 295 288 294 307 298 281 250 209 178 170 169 167 166
323 323 321 319 319 319 319 319 319 320 319 318 318 318 316 315 314 313 313 316 317 317 319 321 326 327 327 330 330 336 340 305 311 319 292 286 335 14 73 153 168 169 166 176 179 178 174 167 165 160 153 137 158 161 170 185 189 224 247 260 217 249 264 281 296 297 299 298 296 299 302 306 311 312 309 281 262 287 297 287 291 265 213 178 168 166 163 166
323 323 319 318 317 318 318 318 319 320 320 318 319 320 318 316 314 310 310 312 312 313 315 317 321 323 324 328 330 331 317 298 309 302 280 269 256 69 94 142 163 166 167 179 184 185 178 168 165 158 151 130 169 170 157 176 194 234 248 309 263 257 251 274 287 288 294 288 284 293 294 292 293 309 314 295 290 300 299 283 282 239 178 163 165 167 165 167
323 321 318 318 315 316 316 316 318 318 320 320 321 322 321 319 314 311 312 310 310 310 310 312 318 318 321 328 331 328 310 299 314 304 287 256 194 114 104 133 158 161 171 186 191 192 180 173 169 159 161 150 174 175 158 170 196 233 247 324 271 260 258 275 281 283 289 285 290 295 279 278 287 296 290 292 302 309 311 293 186 160 152 156 164 165 163 164
322 320 317 316 314 314 312 313 315 317 320 321 322 324 323 319 314 314 313 311 310 307 307 309 311 314 317 323 331 328 306 300 332 323 310 236 181 145 129 122 150 164 175 185 193 202 185 181 176 165 177 172 167 175 171 183 201 222 240 255 263 268 273 279 277 281 286 283 288 275 269 284 306 303 275 283 302 311 325 116 138 145 146 154 161 165 169 173
323 320 318 315 312 310 310 312 314 315 318 319 321 322 322 317 314 314 313 312 310 306 306 304 306 311 310 316 336 334 293 305 321 330 10 182 172 146 135 116 130 172 182 185 191 203 198 193 182 166 161 163 162 170 175 195 227 222 234 251 259 271 280 280 274 277 284 285 262 244 274 295 322 304 267 284 309 314 117 124 135 142 145 155 164 173 180 183
322 319 317 314 312 309 309 312 312 313 314 315 317 317 317 314 313 312 311 311 308 306 304 302 304 303 303 306 299 270 287 304 295 277 61 128 148 140 145 136 127 173 189 193 198 208 212 199 175 162 140 161 162 164 182 208 250 256 257 260 262 275 282 267 261 272 281 285 249 227 260 278 159 247 258 290 302 238 136 134 138 144 149 160 171 180 183 187
320 318 316 315 313 310 309 310 310 310 310 314 314 314 313 310 310 309 308 307 304 302 300 301 302 298 301 295 279 274 285 284 269 256 221 150 144 149 168 174 146 156 162 157 145 198 207 186 175 177 149 155 157 158 195 228 255 266 281 276 283 310 302 254 248 271 259 265 247 213 251 244 168 231 260 298 280 166 141 142 143 148 155 161 172 179 182 189
317 316 316 316 315 313 312 310 309 308 309 313 313 312 310 307 308 305 304 302 298 297 295 297 297 297 298 287 285 290 281 272 269 259 236 215 200 182 182 185 173 169 157 152 143 120 172 181 184 192 164 162 160 126 242 321 262 262 266 267 308 317 306 162 250 282 240 265 241 186 258 259 192 248 276 296 210 168 148 149 149 153 159 161 169 175 179 189
314 314 315 316 316 315 314 313 311 310 311 314 312 310 307 305 303 300 299 297 294 292 292 293 292 295 289 281 295 292 277 273 264 251 237 227 218 209 198 189 193 191 168 143 140 134 165 179 186 194 192 195 241 21 339 353 336 293 236 177 328 288 291 349 336 279 277 326 202 188 248 290 268 291 309 274 198 176 158 156 155 157 163 163 169 176 180 188
311 311 313 314 314 314 315 315 314 314 317 318 313 309 306 303 300 298 297 294 291 288 287 287 287 294 292 290 298 288 273 268 247 231 229 227 217 213 209 199 204 196 167 146 137 128 171 177 180 189 200 216 292 326 328 10 52 7 249 207 85 224 301 334 352 42 350 9 50 198 240 307 287 315 340 252 196 190 172 162 163 164 167 167 172 184 186 186
308 309 312 313 314 314 315 316 316 318 321 321 317 310 306 304 302 302 300 296 290 283 279 278 281 296 302 297 294 206 111 118 138 126 199 219 211 209 212 208 210 196 162 155 140 112 160 171 173 188 207 214 197 322 20 248 195 52 263 242 266 230 286 330 80 74 8 15 33 357 289 313 271 277 341 256 198 202 186 169 172 172 172 173 178 189 191 186
305 308 312 313 313 314 316 318 318 321 324 325 320 312 307 305 306 308 303 295 288 282 279 274 285 303 280 243 211 194 140 126 127 125 113 186 202 207 210 207 207 193 157 144 143 129 142 157 171 189 198 188 149 156 199 233 223 159 259 240 260 239 236 311 206 66 14 9 22 15 292 282 276 275 307 256 209 208 203 183 179 179 178 180 183 192 194 189
303 307 311 311 312 314 316 318 319 322 326 327 323 315 309 308 312 308 296 290 285 292 292 263 251 316 273 229 223 201 168 150 127 168 203 183 194 202 208 207 198 177 149 135 149 153 151 150 168 170 145 176 176 188 203 226 211 185 191 218 251 231 215 269 264 330 357 345 323 321 277 273 280 277 265 252 228 216 215 190 181 186 186 187 188 194 198 197
302 306 310 311 312 316 318 318 319 322 327 329 327 320 311 313 313 298 279 271 257 258 290 242 200 229 281 182 195 201 191 192 221 236 236 204 186 192 198 199 182 164 150 149 164 170 169 144 150 186 194 189 182 195 204 185 142 145 144 225 260 261 245 233 271 290 321 318 303 294 283 277 285 285 266 257 240 226 223 186 183 192 193 195 194 198 202 203
304 308 311 311 313 317 319 319 318 320 326 330 331 321 315 335 324 282 283 279 266 263 270 257 242 254 266 267 233 220 220 237 262 255 223 190 182 179 176 171 165 162 159 165 166 172 178 172 191 200 181 163 180 196 189 152 128 128 169 255 264 266 271 156 257 265 233 279 281 272 273 268 273 279 274 281 256 235 224 193 190 194 196 200 200 202 205 207
306 309 311 311 314 319 319 317 315 318 324 327 332 298 254 25 25 304 308 294 281 276 270 263 258 257 260 261 248 242 257 277 266 226 187 173 165 166 170 167 160 169 169 120 119 134 178 205 212 189 162 154 175 179 153 143 149 183 233 263 272 262 275 241 259 275 222 235 259 244 264 266 265 271 280 305 249 233 220 203 197 195 198 204 207 207 208 210
308 310 311 312 315 320 317 313 312 315 322 329 316 192 183 49 342 311 313 295 293 293 276 264 257 253 255 256 252 254 261 273 259 230 201 177 166 168 167 167 178 173 132 120 125 134 187 221 211 177 157 119 101 139 148 157 172 198 216 255 266 266 308 261 250 293 199 212 254 251 265 274 274 277 288 259 243 241 227 207 201 197 197 204 209 209 208 210
308 309 310 313 316 319 314 311 312 312 323 348 198 190 190 269 298 308 303 278 293 301 279 256 251 253 258 261 259 251 235 233 252 241 213 195 189 181 166 164 183 156 141 179 183 175 193 234 206 167 154 125 103 137 145 146 174 195 205 238 257 280 354 261 232 33 203 226 270 281 284 280 278 285 283 243 249 266 262 236 216 205 201 205 208 206 204 208
307 308 311 314 316 318 313 311 313 307 314 190 199 186 194 256 281 306 299 267 287 303 288 258 248 259 266 265 253 228 217 220 233 236 216 199 184 173 175 172 158 158 186 191 190 195 208 260 148 144 159 156 139 144 156 183 221 214 213 232 254 232 229 244 284 338 267 243 248 262 273 265 267 287 257 219 274 289 271 243 225 214 211 212 210 205 206 210
306 308 312 315 315 316 314 311 307 274 231 209 191 183 208 249 288 312 309 291 289 281 287 262 236 269 288 236 198 197 207 220 227 227 214 199 185 162 164 171 165 194 196 168 168 209 222 172 141 136 163 174 156 173 186 197 229 242 216 220 231 233 227 224 82 340 287 251 147 260 272 246 222 272 253 267 296 289 282 235 221 215 215 214 211 208 209 212
306 308 313 315 313 312 315 305 258 218 239 199 185 186 223 253 315 331 339 10 309 256 275 209 207 344 17 178 170 170 182 223 236 226 210 205 194 173 148 154 182 208 175 146 160 225 208 170 164 151 162 176 182 204 196 189 216 269 223 207 216 228 226 190 163 211 267 282 112 319 286 273 289 263 253 293 295 278 271 244 225 215 214 214 211 210 209 209
305 308 312 314 311 310 311 273 244 258 195 183 191 198 237 281 346 353 3 33 304 252 104 128 148 32 4 212 167 159 168 309 257 208 200 201 190 181 171 159 177 179 137 137 199 217 148 158 168 162 160 169 197 217 193 178 194 257 188 179 192 208 211 191 189 211 257 314 282 178 240 267 277 262 248 306 298 277 236 232 233 220 220 219 216 215 213 210
305 308 313 312 306 307 306 284 263 222 181 183 202 211 249 298 320 284 53 60 273 342 63 127 105 30 17 161 180 190 294 338 24 186 196 193 182 179 188 184 177 159 150 168 201 185 136 173 179 168 166 184 207 209 173 172 202 252 164 160 176 187 196 183 189 216 223 296 269 174 163 245 264 250 195 335 299 292 345 17 306 248 238 230 224 221 217 211
305 310 311 305 301 302 299 288 251 192 192 197 207 224 255 275 229 149 96 104 259 23 27 155 116 21 27 133 195 224 279 339 10 174 188 187 184 183 197 190 164 136 162 197 214 173 96 206 193 166 169 203 209 186 162 177 206 211 135 123 109 122 134 159 196 211 158 245 263 177 166 242 273 256 247 340 306 316 343 358 356 323 269 250 241 230 221 213
307 313 308 301 300 297 289 276 230 190 190 193 204 225 224 182 169 99 115 258 299 10 355 352 99 343 349 105 220 234 240 288 27 134 166 179 186 181 130 157 139 124 165 259 245 210 37 230 184 178 199 210 198 168 169 184 181 110 130 127 94 99 103 122 181 185 187 240 257 165 181 230 271 266 239 27 13 339 332 337 348 350 306 262 266 249 230 196
310 313 303 298 300 295 289 262 195 173 174 184 197 195 171 146 92 100 142 265 316 348 352 357 324 332 352 344 294 238 211 238 140 141 155 170 179 162 123 143 133 119 160 228 242 261 357 219 165 213 215 184 150 165 177 193 179 127 144 149 127 129 130 136 132 151 228 246 319 142 188 212 240 256 60 27 7 350 334 324 326 341 353 160 127 186 183 161
312 306 294 295 298 295 287 218 175 169 169 173 181 177 164 141 238 180 255 311 342 360 351 336 308 324 337 324 266 230 196 186 170 162 159 169 176 170 159 167 162 149 179 213 212 68 248 230 246 257 216 186 183 184 150 140 191 196 189 183 198 183 148 200 202 186 242 248 81 123 179 208 243 301 37 6 358 3 0 342 316 8 97 112 104 116 144 156
309 297 290 294 298 290 260 223 184 180 174 164 162 159 133 82 218 206 314 330 30 2 322 299 310 310 305 311 317 277 213 147 178 173 149 155 180 178 130 95 158 160 161 191 188 204 228 236 223 243 227 195 194 207 199 172 182 186 179 184 189 168 156 199 195 223 262 260 67 126 165 222 246 45 29 5 13 25 38 54 79 88 95 104 108 117 128 143
301 294 294 287 248 152 235 252 192 178 176 166 152 132 110 154 212 159 23 317 308 325 316 310 313 308 289 290 342 331 156 120 161 164 151 144 174 189 193 165 174 143 94 147 176 196 214 255 197 189 197 180 188 213 218 142 162 180 169 179 191 185 194 213 207 228 251 241 80 131 169 228 226 76 24 22 41 46 61 80 92 97 103 110 119 127 132 146
294 297 257 170 133 245 259 244 196 175 171 160 131 103 147 191 238 98 99 288 302 318 311 310 310 309 329 280 318 347 29 12 73 149 162 156 171 188 189 187 187 154 135 175 200 168 212 269 227 201 206 171 182 196 159 127 150 169 144 180 224 214 182 156 242 220 267 250 117 164 212 274 145 95 45 53 60 60 73 86 94 103 114 116 123 139 146 158
297 153 139 128 66 5 285 194 174 165 163 156 114 108 191 227 235 147 115 296 310 329 315 317 10 334 338 323 316 354 351 359 52 136 171 167 180 179 182 193 182 177 174 177 186 159 197 266 269 254 223 197 196 171 162 185 180 136 180 196 195 236 141 123 130 70 7 257 222 170 243 268 147 121 71 66 70 74 78 82 87 94 107 111 116 138 147 151
206 147 141 109 75 65 80 134 151 153 156 147 109 181 229 244 185 179 73 302 283 337 336 338 5 3 346 329 316 336 330 352 57 232 170 166 203 167 178 200 172 191 203 193 212 218 216 262 282 202 203 219 267 154 143 200 143 138 197 182 125 69 96 117 213 104 202 244 230 133 269 286 203 167 80 65 68 76 78 81 88 83 81 90 97 113 122 126
146 149 136 105 89 80 82 103 128 143 145 121 79 251 249 176 194 229 271 304 262 27 46 267 299 10 16 322 306 324 319 325 28 312 158 178 249 155 164 188 180 198 205 190 204 218 212 262 279 215 199 37 10 160 130 91 141 153 209 143 141 208 187 150 204 201 218 238 227 151 255 273 229 171 80 67 57 62 73 79 85 81 72 75 86 98 104 100
142 141 119 108 106 94 87 87 106 130 126 117 227 273 241 234 251 250 261 340 111 121 334 242 247 340 345 304 294 311 317 317 4 359 162 193 240 151 143 219 181 197 194 183 191 154 158 252 254 181 238 25 46 206 180 167 153 68 134 153 18 284 210 174 175 216 235 228 206 194 233 236 192 89 67 66 42 44 74 84 81 80 71 67 76 86 87 83
146 134 100 121 128 114 94 68 78 104 102 163 217 199 206 263 276 264 276 300 234 205 260 216 189 296 306 311 294 279 310 301 251 284 213 189 183 172 303 302 165 67 145 187 200 138 119 228 238 206 271 255 190 319 252 195 175 172 182 183 172 119 111 191 137 52 271 214 171 210 232 141 81 74 60 61 39 19 85 101 95 92 91 82 85 90 85 85
149 119 101 143 153 136 89 41 60 74 59 172 242 212 234 309 304 288 288 278 245 232 243 223 230 273 282 292 290 265 303 293 238 272 240 197 210 189 126 206 189 117 114 170 195 190 159 188 211 251 274 267 236 70 323 258 222 193 210 204 183 156 155 194 198 149 296 246 160 214 233 94 74 80 79 81 124 148 129 134 120 100 103 97 92 94 88 90
147 113 118 159 176 169 72 29 58 5 104 153 276 245 273 314 296 294 299 279 245 234 234 226 235 244 234 245 263 257 271 277 247 261 241 211 250 242 36 317 208 146 136 160 182 173 136 127 168 234 275 282 290 68 123 263 131 117 158 299 156 159 177 213 218 181 157 190 103 163 246 102 82 82 91 107 115 101 107 133 125 98 105 103 93 91 88 94
131 112 120 145 171 178 117 41 97 343 229 275 312 261 255 287 261 292 318 291 257 229 218 229 228 230 226 232 255 258 259 255 233 250 283 231 195 317 326 310 207 141 135 155 131 150 145 118 167 186 302 296 269 160 114 125 146 124 65 38 25 272 286 243 243 178 161 164 143 184 213 136 91 87 101 109 98 82 75 84 88 83 85 87 87 89 92 99
115 105 109 128 161 175 123 73 206 341 283 325 344 301 277 257 229 250 271 269 291 240 230 247 237 244 252 231 236 269 284 261 259 290 38 56 56 343 346 342 171 124 44 147 146 166 178 168 158 158 142 142 180 191 177 158 146 70 57 30 353 343 129 150 117 151 185 176 170 210 207 110 89 97 106 102 89 74 63 64 72 75 73 79 87 94 102 110
115 100 95 119 164 182 138 127 163 158 300 335 350 332 319 283 248 254 256 256 265 259 252 278 292 284 282 280 247 265 269 241 277 334 125 30 2 356 359 357 153 116 57 87 101 117 154 110 146 179 183 179 176 184 197 181 148 8 37 21 14 18 334 206 142 187 213 174 153 219 191 105 112 110 103 96 85 75 69 68 70 70 71 78 84 88 97 106
129 119 89 113 171 188 172 123 133 126 149 167 347 350 337 310 304 279 248 243 256 258 252 285 313 304 309 329 275 269 312 248 269 327 42 10 354 338 345 341 344 117 112 96 88 96 97 60 70 73 134 190 181 129 82 326 173 345 359 9 11 1 332 281 174 196 193 153 161 251 123 127 128 111 99 92 84 83 77 70 69 68 70 77 79 81 88 91
136 153 140 129 157 163 126 118 105 104 139 151 42 2 327 316 328 306 235 222 253 290 248 233 23 29 348 326 311 296 342 333 338 6 360 348 287 340 342 338 351 80 126 104 80 91 100 60 61 55 56 36 352 60 88 52 81 62 18 11 9 3 354 280 218 325 139 158 178 179 146 135 106 67 71 79 81 85 78 69 71 73 74 81 83 84 87 86
132 148 144 144 158 156 118 120 76 101 131 162 111 349 331 334 348 344 269 280 337 10 354 117 36 14 334 285 262 309 334 356 30 21 353 338 359 21 348 334 348 357 1 96 76 103 119 73 249 76 66 52 33 67 101 95 87 70 48 32 20 20 33 51 24 351 316 238 169 149 145 122 65 48 51 58 72 83 83 77 76 74 73 78 80 79 80 81
123 127 125 130 133 102 94 134 141 130 133 289 327 10 324 326 342 347 235 296 350 13 15 39 360 350 344 272 207 341 8 17 19 13 360 348 4 50 15 310 341 341 339 58 67 101 115 99 170 129 82 51 32 47 103 111 101 74 52 40 35 44 56 60 52 29 18 78 121 126 118 87 54 58 59 62 76 84 83 78 71 66 66 70 72 71 71 75
140 140 137 127 109 60 38 78 130 136 102 332 15 52 281 286 328 330 258 236 28 360 14 47 353 339 353 13 102 83 28 343 321 332 22 343 356 18 3 93 356 325 322 29 73 323 124 142 161 117 99 48 22 35 79 109 110 85 52 34 32 46 53 46 35 26 39 91 114 115 105 85 58 70 75 75 78 78 74 69 66 63 63 67 69 68 66 69
148 147 147 137 102 7 7 49 76 115 63 5 359 3 325 281 322 331 286 215 182 326 21 86 360 338 4 4 29 85 15 298 273 273 240 214 13 51 358 31 44 337 318 345 69 342 62 129 152 141 144 124 26 28 41 89 108 84 45 19 10 20 44 45 30 13 10 113 125 119 105 102 103 93 83 73 72 73 69 65 65 66 66 67 69 68 65 66
144 143 147 138 87 350 3 65 49 78 107 309 286 293 285 283 307 335 297 236 205 218 138 132 146 114 354 336 328 328 321 305 282 276 267 254 267 66 273 289 283 256 271 322 41 12 107 134 143 172 169 145 37 2 356 317 136 92 25 356 342 342 22 68 41 14 352 353 145 132 108 113 118 106 89 74 69 69 66 63 65 68 70 70 72 74 73 74
Height
1505 1505 1504 1504 1503 1503 1503 1502 1502 1502 1501 1501 1500 1499 1499 1498 1498 1498 1497 1497 1496 1495 1495 1494 1494 1493 1493 1492 1491 1490 1489 1489 1488 1487 1486 1486 1486 1486 1487 1487 1488 1489 1490 1491 1493 1494 1495 1496 1498 1499 1501 1502 1503 1504 1506 1506 1507 1507 1507 1510 1508 1503 1504 1504 1503 1503 1502 1501 1500 1500 1500 1499 1496 1495 1494 1493 1492 1492 1492 1492 1492 1492 1492 1492 1493 1494 1495 1496
1505 1504 1504 1503 1503 1502 1502 1502 1501 1501 1501 1500 1500 1499 1498 1498 1497 1497 1497 1496 1496 1495 1494 1494 1494 1493 1492 1491 1490 1489 1488 1487 1486 1485 1486 1486 1486 1486 1486 1486 1487 1488 1489 1491 1492 1493 1494 1495 1497 1499 1500 1502 1503 1504 1505 1505 1506 1506 1509 1509 1503 1501 1502 1502 1502 1502 1502 1501 1500 1500 1500 1500 1498 1496 1495 1493 1492 1492 1491 1491 1491 1492 1493 1493 1493 1494 1496 1497
1504 1504 1503 1503 1503 1502 1501 1501 1500 1500 1500 1499 1499 1498 1498 1497 1497 1497 1496 1496 1495 1494 1494 1493 1493 1492 1492 1491 1490 1489 1487 1486 1485 1485 1485 1486 1486 1486 1486 1485 1487 1488 1489 1491 1492 1493 1494 1495 1497 1498 1500 1502 1503 1504 1504 1505 1505 1506 1508 1505 1500 1501 1502 1502 1503 1503 1502 1501 1500 1499 1499 1498 1497 1496 1495 1494 1492 1490 1489 1489 1490 1491 1493 1494 1494 1495 1496 1497
1503 1503 1503 1502 1502 1501 1501 1500 1499 1499 1499 1498 1498 1498 1497 1497 1496 1496 1496 1495 1495 1494 1493 1493 1493 1492 1491 1490 1489 1489 1487 1486 1485 1485 1485 1485 1485 1485 1485 1485 1486 1488 1489 1490 1492 1493 1494 1495 1497 1498 1500 1501 1503 1503 1504 1504 1505 1506 1504 1500 1500 1502 1502 1502 1503 1502 1502 1501 1500 1499 1498 1496 1495 1495 1494 1493 1492 1489 1488 1488 1488 1490 1492 1494 1494 1495 1496 1498
1503 1502 1502 1502 1501 1501 1500 1499 1498 1498 1497 1497 1496 1496 1496 1496 1495 1495 1495 1494 1494 1493 1493 1492 1492 1491 1490 1490 1489 1488 1488 1486 1485 1485 1485 1485 1485 1485 1485 1485 1486 1487 1488 1490 1491 1493 1494 1495 1496 1498 1499 1500 1502 1503 1504 1504 1504 1505 1501 1498 1501 1503 1502 1501 1501 1501 1501 1500 1500 1499 1497 1495 1493 1494 1493 1493 1492 1488 1487 1488 1488 1489 1490 1492 1494 1496 1498 1500
1502 1501 1501 1501 1500 1500 1499 1498 1498 1497 1496 1496 1495 1495 1495 1494 1494 1494 1493 1493 1493 1492 1492 1491 1491 1490 1490 1489 1489 1488 1488 1486 1485 1485 1485 1485 1485 1485 1484 1484 1486 1487 1488 1490 1491 1492 1493 1495 1496 1497 1498 1499 1501 1501 1502 1504 1505 1503 1499 1499 1501 1501 1501 1501 1500 1500 1500 1500 1499 1498 1497 1495 1493 1492 1490 1491 1489 1487 1487 1487 1487 1488 1490 1492 1495 1497 1499 1500
1501 1501 1500 1500 1499 1499 1498 1497 1497 1496 1495 1495 1494 1494 1493 1493 1493 1492 1492 1492 1492 1491 1491 1490 1490 1490 1489 1488 1488 1488 1488 1486 1484 1484 1484 1484 1485 1485 1484 1485 1486 1487 1488 1490 1491 1492 1493 1494 1495 1496 1497 1498 1500 1501 1502 1503 1504 1502 1498 1499 1500 1500 1500 1500 1500 1499 1499 1499 1497 1497 1496 1494 1494 1492 1490 1488 1486 1485 1486 1486 1487 1488 1491 1494 1496 1497 1499 1501
1501 1500 1499 1499 1498 1497 1497 1496 1496 1495 1494 1494 1493 1492 1492 1492 1491 1491 1491 1491 1490 1490 1489 1489 1489 1488 1488 1488 1487 1487 1486 1484 1483 1483 1483 1483 1484 1485 1485 1485 1486 1487 1488 1489 1490 1491 1492 1493 1494 1495 1496 1497 1498 1500 1501 1503 1503 1502 1499 1499 1499 1499 1499 1499 1498 1497 1497 1497 1496 1496 1494 1493 1493 1492 1489 1486 1484 1484 1484 1485 1487 1489 1491 1494 1497 1498 1500 1502
1500 1499 1499 1498 1497 1497 1496 1495 1494 1494 1493 1493 1492 1491 1491 1490 1490 1490 1489 1489 1489 1488 1488 1488 1488 1487 1487 1487 1487 1486 1484 1483 1483 1483 1483 1483 1484 1484 1485 1485 1486 1487 1488 1489 1490 1491 1492 1492 1493 1494 1495 1496 1497 1498 1500 1502 1501 1500 1498 1499 1498 1497 1497 1498 1497 1496 1496 1495 1495 1495 1492 1491 1492 1491 1487 1483 1483 1483 1484 1486 1487 1489 1492 1494 1497 1499 1499 1499
1499 1498 1497 1497 1496 1495 1495 1494 1493 1492 1492 1491 1491 1490 1490 1489 1488 1488 1488 1488 1487 1487 1486 1486 1486 1486 1486 1486 1487 1486 1483 1482 1483 1482 1483 1483 1483 1484 1485 1486 1486 1487 1488 1489 1490 1490 1491 1492 1493 1494 1494 1496 1497 1498 1499 1500 1498 1497 1498 1498 1497 1496 1496 1496 1495 1494 1494 1494 1494 1493 1491 1490 1491 1491 1486 1482 1483 1483 1484 1487 1488 1490 1492 1494 1495 1496 1497 1498
1497 1497 1496 1496 1495 1494 1493 1493 1492 1491 1491 1490 1490 1489 1489 1488 1487 1487 1487 1487 1486 1486 1485 1484 1485 1485 1484 1485 1486 1485 1481 1482 1482 1482 1483 1483 1483 1484 1485 1486 1486 1487 1488 1489 1489 1490 1491 1492 1494 1494 1494 1495 1497 1498 1498 1498 1497 1497 1497 1496 1496 1496 1495 1495 1494 1493 1493 1492 1491 1492 1490 1490 1492 1490 1485 1482 1483 1484 1485 1486 1488 1490 1492 1493 1494 1495 1497 1499
1496 1495 1495 1494 1493 1493 1492 1492 1491 1490 1489 1489 1489 1488 1488 1487 1486 1486 1485 1485 1485 1484 1483 1483 1483 1482 1483 1483 1483 1481 1480 1481 1481 1482 1483 1483 1483 1484 1484 1485 1486 1487 1488 1489 1489 1490 1491 1492 1494 1494 1494 1495 1496 1498 1497 1497 1497 1496 1496 1496 1494 1494 1493 1493 1492 1492 1492 1490 1489 1490 1491 1489 1490 1487 1483 1483 1483 1484 1485 1486 1488 1490 1491 1492 1493 1495 1497 1499
1495 1494 1493 1492 1492 1491 1491 1490 1489 1489 1488 1488 1487 1487 1486 1485 1485 1484 1484 1484 1483 1482 1482 1481 1481 1481 1481 1480 1479 1478 1479 1479 1480 1481 1482 1482 1483 1483 1484 1485 1486 1487 1488 1488 1489 1489 1490 1491 1493 1494 1495 1495 1496 1496 1496 1496 1496 1495 1496 1496 1495 1495 1493 1491 1492 1492 1491 1489 1487 1490 1493 1489 1486 1484 1482 1483 1483 1484 1486 1486 1488 1490 1491 1492 1493 1495 1497 1498
1493 1492 1492 1491 1490 1490 1489 1488 1488 1487 1487 1487 1486 1486 1485 1484 1483 1483 1482 1482 1481 1480 1480 1479 1479 1479 1479 1477 1476 1476 1476 1477 1478 1479 1480 1480 1482 1483 1484 1485 1485 1486 1487 1488 1489 1489 1490 1491 1493 1494 1495 1495 1495 1495 1495 1496 1496 1495 1495 1496 1499 1499 1494 1490 1491 1491 1489 1488 1486 1489 1493 1488 1483 1483 1482 1482 1483 1484 1486 1487 1488 1489 1491 1491 1493 1495 1496 1497
1492 1491 1490 1489 1489 1488 1487 1487 1486 1485 1486 1485 1485 1484 1483 1482 1482 1481 1481 1480 1479 1479 1478 1478 1478 1478 1477 1475 1474 1474 1474 1475 1475 1476 1478 1478 1480 1481 1482 1484 1485 1485 1487 1488 1488 1488 1489 1490 1492 1493 1494 1494 1495 1495 1496 1496 1496 1497 1497 1498 1501 1501 1496 1491 1490 1492 1489 1488 1487 1488 1492 1488 1483 1483 1482 1482 1483 1485 1486 1488 1489 1489 1490 1491 1493 1495 1495 1496
1491 1490 1489 1488 1487 1487 1486 1485 1485 1484 1484 1484 1483 1482 1481 1480 1480 1479 1479 1478 1478 1477 1477 1477 1476 1477 1476 1473 1473 1473 1473 1474 1474 1475 1476 1477 1479 1480 1481 1483 1484 1485 1486 1487 1488 1488 1488 1490 1492 1493 1494 1494 1494 1495 1496 1497 1498 1499 1499 1498 1500 1500 1498 1494 1490 1491 1490 1489 1488 1488 1491 1488 1483 1482 1482 1482 1482 1484 1486 1487 1489 1490 1490 1491 1492 1493 1494 1495
1490 1489 1488 1487 1486 1486 1485 1484 1483 1483 1483 1483 1482 1480 1479 1478 1478 1478 1477 1477 1476 1475 1476 1475 1475 1477 1474 1472 1472 1472 1473 1473 1474 1475 1475 1476 1477 1479 1480 1481 1483 1484 1485 1487 1488 1488 1489 1490 1492 1493 1493 1494 1494 1495 1499 1501 1500 1500 1500 1499 1500 1500 1500 1497 1491 1490 1490 1489 1490 1490 1490 1487 1482 1481 1482 1482 1482 1483 1484 1486 1488 1489 1489 1490 1491 1492 1492 1493
1488 1487 1487 1486 1485 1485 1484 1483 1482 1482 1482 1481 1480 1479 1478 1477 1477 1476 1476 1475 1475 1475 1475 1474 1475 1475 1471 1469 1471 1471 1472 1473 1473 1474 1474 1475 1476 1477 1479 1480 1482 1483 1485 1487 1487 1488 1489 1490 1491 1492 1494 1495 1495 1495 1498 1499 1497 1498 1499 1498 1499 1500 1500 1500 1495 1491 1490 1490 1489 1490 1490 1486 1481 1479 1481 1481 1482 1482 1483 1485 1487 1488 1489 1489 1489 1490 1491 1491
1486 1486 1485 1484 1484 1483 1483 1482 1481 1481 1481 1480 1479 1478 1477 1476 1476 1475 1474 1474 1474 1473 1472 1471 1472 1471 1468 1468 1469 1470 1471 1472 1473 1473 1473 1474 1474 1476 1478 1480 1482 1483 1484 1486 1487 1488 1489 1490 1492 1492 1492 1493 1493 1493 1493 1494 1493 1495 1497 1497 1498 1498 1497 1498 1497 1492 1491 1491 1489 1488 1487 1485 1481 1478 1478 1480 1481 1481 1482 1485 1487 1487 1488 1488 1488 1488 1489 1489
1485 1484 1484 1483 1482 1482 1481 1481 1480 1480 1479 1479 1478 1477 1476 1476 1475 1474 1473 1472 1470 1470 1468 1468 1468 1467 1466 1467 1468 1469 1470 1471 1472 1472 1472 1472 1473 1475 1477 1480 1481 1482 1483 1484 1486 1488 1488 1490 1490 1489 1488 1490 1491 1491 1491 1493 1494 1494 1496 1497 1496 1496 1495 1496 1496 1491 1491 1493 1488 1485 1486 1484 1481 1477 1476 1479 1480 1480 1482 1484 1485 1485 1486 1486 1485 1486 1486 1487
1483 1482 1482 1481 1481 1480 1480 1479 1479 1478 1478 1478 1477 1477 1476 1476 1475 1475 1473 1468 1466 1467 1466 1465 1466 1464 1464 1466 1467 1468 1470 1470 1470 1471 1471 1471 1472 1474 1476 1479 1480 1482 1483 1484 1486 1487 1488 1490 1487 1486 1487 1488 1489 1491 1492 1494 1495 1495 1495 1495 1495 1495 1495 1494 1494 1491 1491 1493 1487 1485 1487 1483 1478 1475 1474 1478 1479 1477 1478 1480 1482 1482 1483 1483 1483 1484 1485 1486
1481 1481 1481 1480 1479 1479 1478 1478 1477 1477 1477 1477 1476 1476 1476 1476 1475 1475 1474 1469 1464 1464 1463 1463 1463 1460 1460 1463 1464 1466 1469 1470 1469 1469 1470 1471 1471 1472 1475 1478 1479 1481 1483 1485 1486 1488 1490 1488 1485 1486 1487 1488 1490 1492 1492 1493 1495 1495 1495 1497 1495 1493 1494 1493 1492 1491 1491 1492 1487 1485 1487 1481 1474 1474 1474 1476 1475 1474 1475 1477 1478 1479 1479 1480 1480 1482 1484 1485
1480 1479 1479 1478 1478 1477 1477 1476 1476 1476 1476 1476 1476 1476 1476 1476 1475 1474 1474 1472 1465 1460 1460 1460 1460 1458 1458 1461 1461 1464 1467 1467 1466 1466 1468 1469 1469 1471 1473 1476 1478 1481 1483 1484 1484 1488 1489 1485 1482 1485 1487 1487 1491 1493 1493 1493 1494 1495 1495 1496 1494 1493 1496 1494 1491 1492 1491 1490 1487 1486 1487 1480 1474 1473 1473 1474 1474 1473 1474 1475 1476 1477 1476 1474 1474 1477 1480 1481
1478 1478 1478 1477 1477 1476 1475 1475 1474 1474 1475 1475 1475 1475 1475 1475 1475 1474 1474 1472 1466 1460 1458 1458 1458 1457 1457 1457 1458 1460 1462 1463 1463 1463 1464 1466 1467 1470 1471 1473 1477 1480 1481 1481 1482 1484 1484 1482 1481 1485 1486 1485 1489 1493 1493 1493 1493 1494 1494 1493 1492 1493 1494 1491 1490 1491 1488 1487 1487 1487 1487 1479 1474 1475 1472 1471 1473 1472 1472 1473 1473 1474 1473 1472 1473 1475 1477 1477
1477 1476 1476 1476 1475 1474 1474 1473 1473 1474 1474 1474 1475 1475 1475 1475 1474 1474 1473 1472 1467 1460 1458 1458 1457 1456 1455 1455 1456 1457 1459 1460 1458 1458 1461 1463 1464 1467 1469 1472 1475 1477 1479 1480 1483 1483 1482 1482 1482 1484 1486 1486 1488 1491 1491 1490 1490 1493 1491 1489 1488 1488 1488 1490 1492 1492 1490 1489 1487 1487 1488 1480 1473 1475 1472 1470 1472 1471 1470 1470 1469 1469 1470 1471 1472 1473 1475 1476
1475 1475 1475 1474 1473 1473 1473 1472 1472 1473 1473 1474 1474 1474 1475 1474 1474 1473 1473 1474 1468 1458 1457 1458 1457 1455 1454 1454 1455 1457 1460 1457 1454 1456 1459 1461 1462 1465 1468 1472 1473 1474 1477 1480 1483 1481 1480 1481 1482 1483 1485 1486 1487 1488 1488 1488 1490 1491 1486 1482 1484 1484 1487 1491 1492 1491 1491 1489 1487 1487 1490 1484 1474 1469 1468 1471 1471 1470 1469 1467 1466 1466 1467 1467 1468 1470 1472 1475
1474 1474 1473 1473 1472 1471 1471 1471 1472 1472 1472 1473 1473 1474 1474 1473 1474 1473 1473 1475 1468 1457 1456 1458 1456 1455 1454 1454 1455 1456 1458 1455 1452 1454 1456 1459 1461 1462 1465 1470 1471 1472 1475 1480 1483 1480 1478 1481 1483 1483 1484 1486 1487 1485 1485 1485 1488 1488 1481 1480 1484 1485 1488 1490 1490 1489 1488 1487 1487 1486 1487 1488 1479 1468 1468 1472 1469 1465 1466 1467 1465 1465 1466 1466 1468 1470 1472 1474
1473 1472 1472 1471 1471 1470 1470 1470 1471 1471 1472 1472 1473 1474 1474 1473 1474 1473 1474 1475 1465 1455 1455 1456 1456 1455 1454 1454 1455 1454 1454 1453 1453 1454 1455 1458 1461 1461 1464 1465 1467 1470 1471 1476 1479 1476 1475 1478 1480 1480 1483 1485 1482 1480 1481 1483 1484 1481 1479 1481 1482 1483 1486 1486 1487 1488 1490 1490 1487 1483 1485 1488 1480 1467 1468 1473 1468 1462 1462 1465 1465 1465 1466 1468 1469 1471 1473 1475
1471 1471 1471 1470 1469 1469 1469 1469 1470 1470 1471 1472 1472 1473 1473 1474 1474 1473 1476 1474 1462 1455 1456 1455 1455 1456 1455 1455 1456 1454 1453 1453 1453 1454 1455 1457 1460 1460 1462 1462 1464 1469 1470 1471 1473 1473 1474 1475 1474 1476 1479 1479 1475 1475 1478 1480 1480 1477 1479 1482 1482 1484 1486 1486 1487 1486 1491 1494 1486 1481 1484 1486 1478 1465 1463 1470 1469 1466 1464 1464 1465 1466 1468 1470 1471 1473 1475 1477
1470 1470 1469 1468 1468 1468 1467 1468 1469 1469 1470 1471 1472 1472 1473 1474 1474 1476 1479 1472 1460 1456 1456 1455 1456 1456 1456 1455 1454 1453 1454 1453 1453 1454 1455 1457 1459 1460 1461 1463 1465 1469 1471 1471 1471 1472 1473 1473 1473 1474 1474 1471 1471 1475 1476 1477 1477 1477 1479 1480 1482 1486 1486 1487 1488 1486 1491 1492 1481 1479 1481 1483 1481 1467 1461 1469 1472 1472 1470 1467 1467 1467 1468 1472 1474 1475 1477 1478
1469 1468 1467 1467 1467 1467 1467 1467 1468 1468 1470 1470 1471 1472 1473 1474 1476 1480 1477 1466 1460 1459 1456 1456 1457 1456 1456 1456 1455 1452 1452 1453 1452 1453 1456 1457 1459 1460 1461 1463 1467 1470 1474 1474 1473 1473 1474 1474 1473 1470 1469 1470 1471 1474 1477 1476 1476 1478 1478 1479 1483 1486 1486 1488 1488 1489 1493 1488 1481 1483 1483 1484 1483 1468 1464 1473 1475 1475 1474 1471 1470 1469 1468 1471 1473 1474 1476 1477
1467 1467 1466 1465 1465 1466 1466 1467 1467 1468 1469 1470 1471 1471 1472 1475 1478 1478 1471 1463 1462 1462 1460 1460 1458 1455 1457 1457 1454 1452 1450 1452 1452 1452 1454 1455 1457 1458 1458 1460 1464 1471 1478 1476 1474 1474 1473 1471 1470 1468 1467 1469 1470 1472 1476 1478 1478 1479 1479 1481 1485 1487 1491 1492 1489 1490 1490 1482 1483 1489 1486 1484 1478 1467 1471 1477 1475 1474 1474 1471 1470 1469 1469 1470 1471 1473 1474 1476
1466 1465 1465 1464 1465 1465 1466 1466 1467 1468 1468 1469 1470 1470 1473 1477 1477 1473 1469 1466 1465 1464 1463 1462 1459 1457 1457 1454 1451 1450 1449 1450 1451 1451 1452 1454 1456 1457 1457 1458 1459 1464 1472 1476 1476 1476 1473 1470 1468 1469 1467 1464 1466 1470 1472 1474 1476 1477 1477 1480 1482 1487 1497 1499 1494 1496 1491 1480 1483 1488 1486 1481 1472 1469 1476 1477 1474 1474 1472 1471 1470 1469 1470 1471 1472 1473 1474 1474
1465 1464 1464 1464 1464 1465 1465 1466 1466 1467 1468 1469 1469 1471 1475 1477 1474 1472 1472 1470 1467 1466 1464 1463 1460 1457 1455 1453 1451 1450 1449 1450 1449 1450 1452 1455 1458 1460 1459 1460 1459 1459 1466 1475 1477 1476 1476 1472 1465 1464 1463 1460 1462 1463 1463 1467 1472 1473 1471 1473 1475 1476 1483 1489 1486 1486 1483 1478 1483 1486 1483 1476 1470 1474 1478 1475 1474 1474 1471 1472 1471 1471 1472 1473 1473 1474 1474 1474
1464 1463 1463 1464 1464 1465 1465 1465 1466 1466 1467 1468 1469 1472 1474 1473 1473 1474 1473 1471 1469 1467 1464 1463 1461 1457 1454 1453 1452 1450 1449 1450 1450 1450 1451 1453 1456 1458 1457 1457 1459 1460 1463 1472 1475 1474 1477 1471 1458 1457 1459 1456 1457 1457 1458 1464 1470 1473 1472 1472 1474 1467 1467 1480 1485 1484 1482 1479 1481 1483 1479 1473 1472 1476 1477 1474 1474 1474 1472 1473 1472 1472 1473 1473 1475 1475 1475 1475
1463 1463 1464 1464 1464 1465 1464 1464 1465 1466 1467 1468 1469 1473 1473 1470 1472 1474 1472 1471 1470 1469 1466 1462 1459 1458 1456 1455 1453 1451 1450 1450 1451 1451 1452 1453 1454 1455 1456 1454 1456 1458 1458 1464 1471 1473 1474 1467 1456 1457 1458 1455 1456 1456 1457 1460 1464 1472 1474 1469 1468 1463 1462 1477 1490 1493 1491 1484 1481 1482 1477 1472 1473 1476 1476 1475 1475 1474 1474 1474 1474 1475 1474 1475 1476 1476 1476 1477
1463 1463 1464 1465 1465 1465 1464 1464 1465 1466 1467 1468 1469 1472 1473 1471 1471 1472 1471 1470 1470 1470 1469 1465 1460 1460 1462 1460 1456 1454 1451 1450 1451 1451 1452 1455 1453 1453 1454 1453 1454 1455 1453 1457 1464 1466 1468 1463 1456 1456 1456 1455 1456 1456 1457 1457 1459 1467 1469 1462 1462 1465 1465 1470 1480 1489 1490 1484 1481 1483 1481 1476 1473 1475 1478 1478 1476 1476 1476 1475 1476 1476 1476 1477 1478 1478 1479 1479
1463 1464 1464 1465 1466 1465 1465 1465 1466 1466 1467 1469 1470 1472 1474 1472 1471 1471 1471 1470 1470 1469 1470 1469 1464 1462 1465 1464 1460 1456 1453 1451 1452 1452 1452 1455 1453 1450 1451 1451 1451 1452 1452 1454 1458 1462 1465 1464 1458 1455 1456 1456 1456 1456 1458 1459 1458 1459 1460 1457 1459 1466 1468 1471 1477 1482 1484 1486 1484 1483 1485 1480 1472 1474 1481 1483 1480 1478 1478 1477 1477 1478 1478 1479 1479 1480 1480 1481
1463 1464 1465 1466 1466 1466 1466 1466 1467 1467 1467 1470 1472 1472 1473 1472 1470 1470 1470 1469 1470 1470 1470 1470 1467 1465 1465 1464 1461 1458 1455 1454 1454 1453 1453 1455 1453 1450 1450 1450 1450 1451 1452 1453 1456 1459 1463 1466 1462 1456 1456 1457 1455 1456 1458 1459 1459 1458 1458 1459 1460 1462 1465 1468 1472 1471 1474 1483 1485 1482 1479 1473 1469 1477 1484 1484 1483 1481 1479 1480 1479 1479 1480 1480 1480 1481 1481 1482
1463 1464 1465 1466 1466 1467 1467 1467 1467 1468 1469 1471 1473 1472 1472 1472 1470 1469 1469 1469 1469 1469 1469 1470 1469 1468 1466 1463 1462 1460 1457 1455 1455 1453 1452 1453 1452 1450 1450 1450 1450 1452 1452 1453 1455 1457 1461 1466 1465 1457 1455 1456 1457 1458 1458 1458 1458 1457 1459 1460 1461 1464 1466 1466 1470 1472 1471 1476 1483 1484 1476 1469 1473 1481 1482 1482 1483 1481 1480 1480 1480 1480 1481 1481 1480 1481 1482 1483
1463 1464 1465 1467 1467 1467 1468 1467 1469 1470 1471 1473 1473 1472 1472 1471 1469 1468 1468 1468 1468 1467 1468 1468 1468 1468 1467 1465 1462 1461 1459 1456 1455 1454 1452 1451 1451 1450 1449 1449 1450 1451 1452 1454 1455 1456 1459 1464 1465 1460 1456 1456 1458 1459 1460 1459 1458 1458 1457 1456 1456 1461 1463 1465 1472 1477 1474 1472 1478 1480 1472 1469 1478 1482 1480 1482 1482 1480 1480 1480 1480 1481 1481 1482 1482 1480 1482 1483
1463 1465 1466 1467 1467 1468 1468 1469 1471 1472 1472 1472 1472 1471 1471 1470 1469 1468 1467 1467 1467 1467 1467 1467 1467 1466 1466 1464 1462 1461 1459 1457 1455 1454 1453 1451 1450 1449 1448 1449 1449 1449 1451 1453 1454 1454 1456 1460 1463 1462 1460 1459 1459 1460 1461 1461 1461 1461 1459 1458 1458 1457 1457 1459 1465 1471 1475 1476 1477 1476 1471 1473 1481 1481 1479 1482 1481 1480 1481 1481 1480 1482 1482 1482 1483 1481 1482 1483
1463 1465 1466 1467 1467 1468 1468 1470 1472 1472 1471 1471 1471 1470 1470 1469 1469 1468 1467 1467 1467 1467 1467 1467 1465 1464 1463 1462 1462 1461 1459 1457 1454 1453 1452 1451 1450 1449 1449 1448 1448 1448 1449 1452 1453 1454 1456 1460 1463 1464 1462 1458 1456 1458 1460 1460 1460 1460 1462 1464 1464 1462 1460 1460 1459 1461 1468 1474 1474 1472 1473 1475 1480 1480 1479 1481 1481 1481 1483 1482 1482 1483 1483 1483 1483 1483 1482 1483
1464 1465 1466 1467 1468 1468 1469 1470 1471 1472 1471 1471 1471 1469 1469 1469 1468 1468 1468 1467 1467 1467 1467 1465 1464 1463 1462 1462 1461 1460 1459 1458 1455 1451 1452 1453 1451 1450 1449 1448 1448 1448 1448 1451 1452 1452 1456 1460 1462 1465 1467 1466 1463 1462 1460 1458 1460 1463 1466 1468 1468 1468 1466 1463 1462 1461 1463 1471 1471 1466 1469 1476 1480 1480 1479 1481 1483 1484 1484 1485 1484 1484 1484 1484 1483 1484 1484 1483
1464 1466 1467 1468 1468 1469 1469 1470 1470 1471 1472 1473 1472 1471 1470 1469 1467 1467 1467 1467 1467 1467 1466 1465 1463 1463 1463 1462 1461 1458 1457 1458 1455 1452 1452 1452 1451 1450 1449 1449 1448 1447 1448 1451 1450 1451 1458 1463 1462 1462 1465 1469 1469 1467 1464 1462 1464 1466 1468 1470 1471 1473 1469 1462 1461 1460 1461 1472 1473 1463 1467 1479 1482 1480 1481 1483 1485 1486 1487 1487 1486 1486 1486 1485 1485 1486 1486 1486
1463 1465 1468 1468 1469 1469 1469 1470 1470 1470 1472 1473 1472 1472 1472 1470 1468 1467 1467 1467 1466 1466 1466 1465 1463 1463 1463 1462 1460 1459 1458 1457 1456 1455 1454 1453 1452 1452 1450 1450 1449 1446 1448 1452 1451 1453 1461 1469 1468 1464 1462 1463 1464 1467 1469 1469 1468 1469 1471 1473 1475 1478 1476 1467 1460 1457 1460 1470 1473 1469 1472 1480 1482 1481 1483 1486 1487 1488 1489 1488 1488 1489 1488 1487 1488 1488 1488 1488
1462 1464 1467 1468 1468 1469 1470 1470 1470 1470 1471 1472 1471 1472 1472 1471 1469 1467 1466 1466 1466 1466 1465 1465 1464 1464 1465 1464 1461 1460 1460 1458 1456 1457 1457 1456 1456 1455 1452 1451 1451 1449 1450 1451 1452 1456 1463 1469 1472 1471 1470 1470 1470 1471 1473 1472 1473 1477 1479 1478 1478 1478 1477 1468 1461 1462 1463 1462 1467 1475 1477 1478 1484 1487 1487 1488 1489 1489 1490 1490 1490 1491 1490 1490 1490 1489 1490 1490
1462 1464 1466 1466 1467 1469 1469 1469 1470 1470 1471 1471 1472 1472 1472 1471 1470 1469 1467 1466 1465 1465 1465 1465 1466 1466 1466 1466 1463 1461 1460 1458 1458 1459 1459 1458 1457 1457 1457 1454 1451 1451 1451 1451 1452 1456 1463 1469 1473 1474 1475 1475 1474 1473 1473 1474 1478 1482 1482 1481 1480 1478 1476 1473 1472 1475 1471 1461 1462 1473 1478 1481 1489 1493 1492 1492 1492 1491 1492 1493 1493 1493 1492 1492 1492 1491 1491 1491
1462 1464 1465 1466 1466 1468 1469 1469 1470 1470 1471 1471 1472 1472 1472 1471 1470 1469 1468 1467 1465 1465 1465 1465 1467 1466 1465 1465 1464 1462 1462 1461 1460 1462 1462 1460 1458 1459 1460 1457 1454 1454 1453 1452 1453 1455 1461 1471 1476 1474 1475 1477 1476 1475 1474 1475 1478 1482 1484 1484 1482 1479 1478 1477 1477 1478 1474 1466 1467 1475 1482 1490 1495 1495 1495 1495 1494 1494 1495 1495 1495 1495 1495 1494 1494 1493 1493 1492
1462 1463 1464 1465 1466 1468 1469 1469 1469 1470 1471 1471 1471 1472 1472 1471 1470 1469 1468 1467 1467 1466 1466 1467 1468 1466 1465 1465 1463 1463 1465 1464 1463 1463 1462 1462 1460 1460 1461 1460 1459 1459 1455 1454 1456 1454 1457 1469 1475 1473 1474 1477 1477 1477 1476 1475 1477 1481 1485 1487 1484 1481 1481 1481 1482 1481 1478 1475 1477 1480 1486 1494 1498 1497 1497 1497 1496 1496 1497 1496 1497 1497 1497 1497 1495 1495 1495 1494
1461 1462 1463 1464 1467 1469 1469 1469 1470 1470 1470 1472 1472 1472 1472 1471 1470 1470 1468 1466 1467 1467 1466 1467 1468 1466 1464 1465 1464 1464 1465 1465 1464 1463 1462 1462 1461 1461 1463 1463 1464 1465 1461 1456 1457 1455 1457 1468 1474 1470 1470 1476 1478 1478 1479 1478 1475 1477 1484 1489 1489 1486 1485 1486 1488 1488 1485 1481 1481 1482 1486 1495 1500 1499 1499 1499 1498 1498 1499 1499 1500 1500 1500 1499 1498 1497 1497 1496
1461 1462 1463 1463 1466 1470 1470 1470 1471 1470 1471 1473 1473 1472 1471 1470 1470 1470 1467 1465 1465 1466 1466 1466 1466 1465 1465 1465 1464 1464 1463 1462 1462 1462 1462 1463 1462 1461 1463 1464 1465 1469 1466 1459 1458 1459 1459 1464 1468 1467 1467 1475 1479 1478 1479 1478 1473 1476 1487 1494 1493 1490 1488 1488 1490 1491 1490 1486 1484 1486 1491 1497 1501 1500 1500 1501 1501 1501 1502 1502 1503 1503 1503 1502 1501 1500 1500 1499